Regional Weather Roundup
Issued by NWS Jackson, KY

Home | Current Version | Previous Version | Graphics & Text | Print | Product List | Glossary On
Versions: 1 2 3 4 5 6 7 8 9 10 11 12 13 14 15 16 17 18 19 20 21 22 23 24 25 26 27
000
ASUS43 KJKL 290910
RWRJKL

EAST KENTUCKY HOURLY WEATHER ROUNDUP
NATIONAL WEATHER SERVICE JACKSON KY
500 AM EDT SUN MAY 29 2016

NOTE: "FAIR" INDICATES FEW OR NO CLOUDS BELOW 12,000 FEET WITH
NO SIGNIFICANT WEATHER AND/OR OBSTRUCTIONS TO VISIBILITY.

* THESE REPORTS ARE NOT UNDER NWS QUALITY CONTROL AND MAY NOT
  REPORT WEATHER SUCH AS PRECIPITATION AND FOG.

KYZ079-080-083-085-087-088-110-112-115-119-120-291000
...EASTERN KENTUCKY...

CITY           SKY/WX    TMP DP  RH WIND       PRES   REMARKS
JACKSON        PTCLDY    68  64  87 CALM      30.14S
LONDON         CLOUDY    66  63  90 CALM      30.13S
SOMERSET*      CLOUDY    63  63 100 CALM      30.13S
MONTICELLO*    MOCLDY    63  62  97 NW8       30.14S
WILLIAMSBURG*  CLOUDY    61  61 100 CALM      30.14S
MIDDLESBORO*   CLOUDY    64  63  98 CALM      30.14F
HARLAN APT*    CLOUDY    63  61  94 CALM      30.15S VSB 1/2
HAZARD APT*    SUNNY     64  64 100 CALM      30.13  FOG
BLACK MTN*       N/A     64  55  72 SW5         N/A
PIKE CO APT*     N/A     67  66  95 S3        30.14S
BIG SANDY APT* PTSUNNY   67  67 100 CALM      30.13S FOG
MOREHEAD APT*  CLOUDY    66  64  94 CALM      30.14S
ASHLAND*       CLOUDY    66  66 100 CALM      30.09S
$$

KYZ035-036-041-042-044-050-067-078-099-291000
...CENTRAL KENTUCKY...

CITY           SKY/WX    TMP DP  RH WIND       PRES   REMARKS
MT STERLING*   CLOUDY    66  64  94 CALM      30.13S
FLEMING/MASON* CLOUDY   N/A N/A N/A CALM      30.12S
DANVILLE*      CLOUDY    64  63  94 CALM      30.12S
RICHMOND*      CLOUDY    66  63  88 CALM      30.11S
LEXINGTON      CLOUDY    69  62  78 SE6       30.11S
FRANKFORT      CLOUDY    67  62  84 CALM      30.09S
LOUISVILLE     CLOUDY    67  64  90 SE3       30.07S
LEBANON*         N/A     66  63  88 S5        30.12R
GLASGOW*       MOCLDY    64  64 100 CALM      30.11R
BOWLING GREEN  PTCLDY    65  64  97 CALM      30.09S FOG
$$

KYZ091>093-OHZ055-061-077-WVZ005-015-034-035-042-291000
...SOUTHERN OHIO/WEST VIRGINIA...

CITY           SKY/WX    TMP DP  RH WIND       PRES   REMARKS
COVINGTON      CLOUDY    69  63  81 S7        30.09S
COLUMBUS       CLOUDY    67  65  93 CALM      30.09S
DAYTON         CLOUDY    70  62  76 S6        30.10S
WILMINGTON     MOCLDY    68  61  78 W3        30.10S
HUNTINGTON       N/A     67  65  93 CALM      30.11R FOG
CHARLESTON     MOCLDY    64  62  93 CALM      30.11S
PINEVILLE*       N/A     61  58  89 MISG      30.22R
BECKLEY          N/A     64  56  75 SE3       30.19S
BLUEFIELD        N/A     64  53  67 CALM      30.21S
LOGAN CO APT*    N/A     68  59  73 CALM      30.14S
$$

VAZ002-007-008-TNZ017-027-036-066-071-291000
...SOUTHWEST VIRGINIA/EAST TENNESSEE...

CITY           SKY/WX    TMP DP  RH WIND       PRES   REMARKS
WISE*            N/A     66  50  55 CALM      30.21S
JONESVILLE*      N/A     63  63 100 CALM      30.16S
ABINGDON*        N/A     66  57  72 CALM      30.17F
BRISTOL        CLOUDY    64  59  83 CALM      30.15S
SEVIERVILLE*   MOSUNNY   63  61  94 CALM      30.11F
KNOXVILLE      CLOUDY    71  63  75 S5        30.10F
OAK RIDGE      CLOUDY    68  64  87 CALM      30.12F
CROSSVILLE     MOCLDY    63  59  87 CALM      30.16F
NASHVILLE      PTCLDY    66  63  90 CALM      30.09S
$$

...KEY TO REMARKS...
VSB - VISIBILITY IN MILES
WCI - WIND CHILL INDEX
HX  - HEAT INDEX

$$




USA.gov is the U.S. government's official web portal to all federal, state and local government web resources and services.